Wind_Speed
4 5 1 3 4 5 6 5 6 6 6 7 6 5 5 5 4 4 3 2 1 5 0 1 3 3 4 5 7 7 8 10 10 10 10 9 9 9 10 11 11 10 9 10 12 13 14 15 17 16 17 19 19 19 19 16 10 14 18 14 7 8 10 14 17 19 22 25 27 27 25 23 21 18 16 16 17 16 17 18 19 19 19 19 19 20
4 5 2 5 5 5 4 4 5 6 6 7 5 5 5 4 5 5 2 4 1 4 1 3 3 4 5 5 7 6 8 10 10 11 10 11 10 9 11 12 11 9 8 9 11 12 13 14 15 15 16 18 18 17 17 18 15 14 19 18 13 9 10 14 18 22 24 27 28 25 21 19 17 16 16 16 17 18 18 18 19 19 20 20 20 20
4 1 4 5 4 2 2 3 6 7 6 6 4 5 5 5 6 1 6 4 1 4 2 4 4 4 5 5 7 7 8 9 9 10 10 10 10 10 11 11 11 11 11 10 10 12 13 13 14 13 14 15 15 15 14 15 16 14 14 18 17 13 11 14 17 19 21 22 24 21 17 15 14 14 15 15 16 17 19 19 19 19 20 21 21 21
4 3 5 3 2 3 4 3 6 7 5 4 3 5 5 7 7 1 4 1 1 2 3 3 4 4 5 5 6 7 7 7 8 9 9 9 9 10 11 11 12 13 13 12 11 11 12 13 13 12 13 14 13 13 14 14 14 13 13 14 17 16 15 16 15 17 20 20 20 20 17 15 13 13 13 14 16 17 19 20 20 20 20 21 22 21
3 5 4 1 2 5 6 5 6 6 4 3 2 5 8 8 8 5 2 2 1 2 3 4 4 4 6 6 5 5 6 6 6 7 9 9 9 8 9 10 12 13 13 13 13 12 12 12 12 11 11 11 11 12 13 13 12 12 13 13 14 15 15 17 16 16 18 20 21 20 16 15 15 14 14 16 17 18 19 20 21 21 21 21 21 22
2 5 1 3 3 5 7 5 5 6 5 3 1 5 10 10 7 6 4 4 3 3 3 4 3 4 6 6 5 5 4 5 4 6 8 9 9 9 9 10 10 11 12 12 13 12 12 12 12 12 11 10 10 11 12 12 12 12 12 13 13 14 13 15 17 17 16 18 21 21 18 16 17 17 16 18 18 19 20 20 20 20 21 21 21 22
2 4 1 4 4 6 6 4 5 7 7 2 3 8 11 9 7 5 4 4 3 2 3 5 4 2 5 5 6 5 4 4 3 5 8 8 9 9 9 9 9 10 10 11 13 14 12 12 13 13 12 11 10 10 11 11 11 11 11 11 12 12 12 13 14 17 16 16 20 24 24 21 20 19 18 18 18 18 18 18 19 19 20 21 22 23
1 1 3 4 6 7 5 4 5 7 7 2 5 10 11 7 5 5 4 4 1 2 4 3 3 3 3 4 7 6 4 3 2 5 7 8 9 10 10 10 10 9 9 10 12 14 14 13 13 13 13 12 12 11 11 11 11 11 11 10 10 10 11 11 12 14 16 14 17 24 26 23 22 22 19 19 19 18 17 17 18 19 20 21 22 23
1 2 2 4 7 6 5 6 6 7 6 4 8 10 8 6 5 5 4 2 1 1 3 1 3 4 1 5 5 5 5 3 1 4 7 8 9 10 10 10 10 9 8 9 10 12 14 16 15 14 14 13 12 12 11 12 12 11 11 11 10 10 10 10 11 14 15 15 15 19 23 22 21 23 22 20 19 18 18 17 18 19 19 20 21 21
2 3 3 5 5 5 7 7 6 6 6 6 10 9 5 5 5 5 4 1 1 3 1 4 3 4 1 5 4 5 4 1 2 3 6 7 8 9 9 10 10 9 8 8 9 10 13 16 18 16 15 14 13 12 12 12 12 12 12 12 11 11 10 10 11 12 14 16 16 17 21 22 20 24 24 22 20 18 18 19 18 19 19 19 19 20
2 2 0 3 4 5 8 8 4 5 7 8 9 6 5 5 4 4 3 1 3 2 3 4 2 3 0 3 2 2 2 2 3 3 5 7 8 9 9 9 9 9 8 8 8 10 12 15 17 18 17 16 14 13 12 12 12 13 13 12 12 11 11 11 10 11 12 14 16 18 21 24 24 26 26 25 23 19 17 19 19 19 20 20 20 20
4 4 1 2 3 6 8 7 4 4 7 8 8 5 5 5 4 4 3 3 5 1 4 4 1 3 2 2 3 5 5 4 4 5 7 9 10 9 9 9 9 9 9 9 8 9 11 13 16 18 19 18 16 14 13 13 13 14 14 13 14 13 12 11 11 10 11 12 14 17 19 23 25 25 25 26 25 21 19 20 21 20 20 20 21 21
3 3 2 3 2 7 9 7 3 3 4 6 6 5 6 4 3 5 4 3 4 2 4 2 1 4 1 5 5 7 6 4 4 5 7 9 10 10 10 9 8 9 9 9 8 9 9 11 15 18 20 20 18 16 15 14 14 13 14 14 15 15 14 13 12 11 11 11 13 16 17 20 22 24 26 26 26 25 24 22 21 21 21 21 21 22
1 5 2 1 1 5 8 7 4 3 4 5 4 4 5 3 3 5 4 3 3 3 3 1 1 3 0 4 5 7 6 3 3 4 6 8 9 10 10 10 9 10 10 9 9 9 9 11 16 18 19 20 21 20 18 15 14 14 14 14 15 16 15 15 14 13 12 11 13 15 17 18 20 23 26 26 27 28 26 24 23 23 22 21 21 22
3 2 3 5 3 5 7 5 6 7 6 5 4 5 5 3 3 5 4 4 4 2 0 3 2 4 3 3 4 6 4 2 1 3 6 8 9 10 11 11 12 12 11 10 10 10 11 14 17 18 18 20 21 22 21 19 16 16 16 15 16 17 17 16 16 15 14 12 12 14 16 18 19 22 24 26 27 28 27 25 24 25 24 22 22 22
5 1 5 6 3 5 7 4 6 8 5 2 4 5 3 4 4 4 3 4 5 4 1 2 2 3 3 5 6 4 3 2 2 6 8 10 11 12 12 12 12 12 12 12 11 12 13 15 17 17 18 20 21 22 22 21 20 18 17 17 17 18 18 17 17 16 16 14 13 14 16 18 19 20 22 24 26 27 27 26 25 27 26 23 22 21
5 2 6 4 1 3 7 6 6 7 4 2 3 3 3 4 6 4 1 1 2 4 1 0 3 2 3 5 6 4 0 3 6 9 10 12 13 13 12 11 12 12 13 14 13 13 15 17 18 18 19 20 21 23 23 23 23 21 20 19 18 18 18 18 17 17 17 16 15 15 16 18 20 21 22 24 25 25 27 27 27 28 27 24 22 20
5 3 6 3 3 3 4 4 4 5 6 4 2 3 3 3 3 3 3 1 3 5 2 2 5 4 2 1 3 1 5 7 9 11 12 13 14 13 12 12 13 14 14 15 15 15 15 18 20 20 21 21 22 23 23 22 22 22 22 20 20 20 20 19 18 17 17 16 16 16 16 18 20 22 23 24 25 25 26 27 28 28 28 27 24 21
3 4 5 4 5 4 1 2 2 4 5 4 3 2 3 3 1 2 3 3 5 5 4 4 5 5 3 3 4 6 8 10 11 13 14 14 14 13 12 13 15 15 14 14 14 14 14 17 20 22 23 24 23 22 22 22 21 22 22 22 23 23 22 21 19 18 18 17 17 16 17 17 19 22 24 25 25 26 27 28 28 28 29 28 26 23
2 4 2 3 2 2 1 1 1 2 3 1 1 1 1 3 4 3 3 4 5 5 5 6 6 4 3 5 6 8 10 12 13 14 14 15 14 13 13 14 15 15 14 14 14 14 14 18 21 23 24 25 24 23 22 22 22 22 23 23 23 24 24 23 21 20 20 19 18 18 18 18 19 21 23 25 26 27 29 29 29 29 29 29 27 25
1 2 3 1 3 1 2 3 4 5 3 2 1 1 2 1 1 2 2 2 3 5 5 6 7 5 5 6 6 9 11 12 14 15 15 15 15 15 15 15 15 15 15 14 14 14 15 19 22 22 23 24 25 24 24 23 23 23 23 23 23 24 25 24 23 22 21 20 19 20 20 20 20 21 22 24 27 29 29 29 29 29 29 29 28 26
2 2 4 3 1 2 3 3 3 5 4 4 3 3 4 3 3 4 1 1 2 4 4 6 8 4 5 4 5 10 12 13 15 17 16 16 17 16 15 16 16 15 15 14 14 14 15 18 21 22 22 23 24 24 25 25 25 24 24 23 23 24 25 25 24 23 22 21 20 20 21 21 21 22 23 24 26 29 30 30 29 30 29 29 28 27
2 3 4 4 2 3 3 3 1 3 3 4 4 3 3 2 3 5 3 2 3 4 3 4 7 3 5 4 5 11 13 14 15 17 16 16 17 17 16 17 16 15 14 14 14 14 16 19 21 22 22 23 23 23 24 25 25 26 25 24 24 24 24 26 26 25 25 23 22 21 21 21 21 22 23 24 26 29 31 31 30 30 31 30 28 27
1 2 3 3 1 3 4 4 2 1 3 4 2 1 2 2 3 4 4 4 5 5 3 5 6 2 5 3 7 13 14 14 14 16 17 16 16 17 18 17 16 16 15 15 15 15 17 21 21 21 23 24 24 24 25 25 25 25 25 25 24 24 25 26 27 27 27 27 26 24 23 23 23 22 24 25 26 28 31 32 31 31 32 31 29 28
1 2 3 4 3 1 2 2 2 2 2 3 2 1 1 3 3 3 1 2 4 3 3 6 7 3 4 7 13 15 15 15 15 16 17 16 16 16 16 16 16 16 16 16 17 17 18 19 19 21 23 24 25 25 25 25 24 24 25 26 26 26 26 26 27 27 28 29 29 28 26 25 24 24 25 26 27 28 30 31 31 31 32 31 30 30
1 2 3 4 5 4 4 4 3 3 4 3 1 1 2 4 1 4 3 4 3 3 2 6 8 8 10 14 16 16 15 16 17 17 17 16 16 16 15 16 16 16 16 18 19 18 18 17 19 22 25 26 26 26 25 24 25 25 26 27 27 28 28 28 28 28 28 29 30 30 28 27 25 25 26 26 27 27 28 30 31 31 32 30 30 30
2 2 3 4 5 5 6 7 7 6 6 2 3 3 4 4 2 4 5 4 4 5 5 5 7 13 16 16 17 16 16 16 17 18 18 16 16 16 15 15 15 15 16 17 18 18 18 18 19 22 26 27 27 26 25 25 25 26 26 27 28 28 29 28 28 29 30 30 30 31 30 28 26 26 25 26 27 27 28 30 31 32 32 30 29 29
3 2 2 4 6 5 6 8 7 6 5 1 3 4 5 4 3 4 5 3 4 6 7 8 12 16 17 17 17 16 15 16 16 17 18 17 17 17 16 16 17 17 17 17 18 19 19 20 19 22 26 28 27 27 27 26 26 26 25 27 27 28 28 28 28 29 30 30 31 32 31 28 26 26 25 25 26 27 29 31 31 33 33 31 30 29
5 3 2 5 6 5 4 5 5 6 5 2 4 4 6 6 6 6 5 3 2 6 9 10 15 17 16 16 15 14 15 16 16 16 17 18 18 18 18 18 18 19 19 20 19 19 20 21 20 22 26 28 28 28 29 28 27 26 27 28 28 27 28 29 29 30 30 30 31 31 31 29 26 26 25 25 26 27 29 31 33 33 33 31 29 28
4 2 2 6 7 3 2 3 3 6 7 1 3 4 6 7 7 7 5 3 4 8 11 11 14 15 13 13 13 14 14 14 14 16 17 18 18 19 19 19 19 20 21 21 21 21 21 22 22 24 27 28 29 30 29 28 27 28 28 29 28 27 27 28 29 30 30 30 30 29 30 29 27 26 25 25 26 28 28 31 32 33 33 32 30 28
3 2 1 5 7 1 2 3 4 5 6 2 2 3 5 5 5 5 4 4 4 7 9 9 11 11 9 12 13 13 13 13 14 17 17 17 17 19 20 20 20 21 21 22 22 22 22 22 23 24 26 29 31 31 29 28 28 28 28 29 28 26 27 27 27 29 30 31 29 29 29 29 27 26 25 25 26 27 28 29 30 31 32 32 30 28
3 3 3 5 7 2 3 4 5 6 5 3 4 6 6 6 4 4 4 4 5 5 7 8 8 8 9 12 13 13 14 15 16 17 16 15 16 19 20 20 20 20 21 22 22 22 22 23 23 23 25 29 31 31 30 29 30 28 27 28 28 27 26 25 25 26 29 30 29 28 29 28 26 26 25 25 27 27 27 28 29 30 32 30 26 25
3 4 4 4 6 4 3 4 6 6 6 3 2 5 7 8 6 5 4 5 6 5 5 8 8 9 12 13 12 13 14 15 15 15 13 14 16 19 20 20 19 19 20 21 21 21 21 22 23 25 27 29 30 30 30 31 30 28 28 29 28 27 26 23 21 21 24 27 27 27 28 27 25 26 25 25 26 26 25 25 28 33 33 27 23 23
4 5 4 3 5 6 4 4 6 6 4 2 3 0 3 5 6 7 7 8 6 5 6 9 10 11 13 12 13 14 13 14 14 12 10 13 15 17 19 19 18 19 20 20 20 20 20 23 27 28 28 29 29 30 31 30 28 28 29 29 26 25 26 22 17 16 18 23 25 25 26 25 24 25 24 24 25 24 23 25 29 34 33 26 22 23
4 5 4 3 4 6 5 5 6 5 4 4 2 1 1 4 5 5 9 10 8 6 8 10 11 12 12 11 12 12 12 14 13 9 9 15 17 17 18 17 17 18 19 19 20 20 22 25 27 28 29 29 30 30 30 29 29 29 29 28 25 23 25 22 15 15 16 20 23 24 24 24 25 24 23 24 24 22 23 27 29 30 29 25 23 24
5 4 4 3 3 5 6 5 6 6 4 2 2 2 2 3 4 5 9 9 6 5 7 10 11 12 12 11 11 11 12 13 11 6 11 17 18 18 18 16 17 17 17 18 20 21 23 25 25 26 28 30 30 29 29 30 31 31 29 28 25 22 22 22 15 13 16 18 20 22 23 23 23 22 22 23 23 21 24 28 28 25 25 24 24 26
6 4 4 3 2 3 7 6 6 8 3 3 3 2 1 3 3 4 9 8 4 3 7 9 11 12 11 11 11 11 11 11 8 6 13 18 18 18 17 17 19 18 17 21 24 25 27 27 27 28 29 29 29 28 29 31 32 31 29 27 26 24 21 20 16 11 12 16 19 20 22 23 22 23 22 22 23 24 25 28 27 25 26 26 27 27
6 5 4 4 2 2 6 6 6 7 3 2 2 2 1 2 2 4 8 5 1 3 8 9 10 11 11 11 11 11 10 9 7 8 14 18 18 17 17 18 21 21 20 24 26 27 29 29 29 29 28 28 28 27 28 30 31 30 27 24 24 25 21 18 18 15 10 11 17 19 21 22 23 24 24 23 25 25 25 27 27 25 26 27 27 25
4 4 4 5 5 4 6 7 5 5 4 3 2 3 3 1 1 2 5 1 3 6 9 8 9 11 10 10 11 9 8 8 8 9 13 17 18 16 14 16 19 22 23 25 25 26 28 28 28 28 27 27 27 27 27 27 27 27 25 23 23 23 22 22 23 21 16 11 14 17 20 21 20 18 19 19 18 18 17 18 21 25 27 26 25 24
5 4 5 6 6 4 4 6 6 4 2 2 1 3 4 2 2 3 4 3 6 8 7 6 10 11 9 10 9 8 7 8 8 10 13 17 17 15 14 15 18 20 23 24 25 25 27 26 25 26 27 28 28 28 27 26 25 25 24 24 23 21 22 24 27 27 23 13 9 8 6 5 3 1 2 3 3 7 7 7 11 14 19 24 26 25
5 5 5 6 6 4 3 5 6 4 1 3 3 5 5 4 3 3 6 6 8 9 7 6 9 10 9 9 7 6 7 7 9 11 14 16 16 16 17 18 20 21 22 23 24 25 26 25 25 25 27 28 28 28 27 26 24 23 24 24 24 23 25 26 26 28 24 11 5 5 8 9 6 2 1 1 2 7 9 9 13 15 15 16 18 20
4 4 4 5 6 4 4 5 6 3 2 4 5 6 6 2 3 5 6 5 6 8 8 7 8 9 9 8 7 6 7 8 10 12 14 15 15 15 17 19 21 22 23 24 25 25 25 24 25 26 27 28 29 28 27 25 24 23 23 24 25 26 27 26 24 25 23 17 13 10 10 11 8 5 4 4 3 2 1 4 7 9 12 17 17 14
2 3 4 4 4 4 5 5 5 4 2 7 7 5 5 4 5 6 6 5 3 4 7 7 7 8 8 7 7 8 8 9 11 13 14 14 14 14 16 18 20 21 23 25 26 26 26 25 25 27 27 28 29 28 27 25 24 25 24 24 26 27 26 26 24 22 20 19 17 15 13 11 9 8 9 7 5 4 4 3 2 4 7 9 11 12
2 3 5 3 2 3 5 3 2 4 3 9 6 1 3 5 5 6 6 6 4 3 5 6 6 8 7 7 7 8 8 9 11 13 14 13 14 14 15 18 20 21 22 24 26 27 26 25 25 27 27 27 28 27 27 26 24 25 26 26 27 27 25 25 23 20 19 19 17 16 14 11 8 7 7 6 5 4 2 2 2 3 6 5 6 10
2 2 4 4 2 4 6 5 3 4 1 6 6 6 5 5 5 5 6 6 6 4 3 4 7 8 7 7 7 7 7 9 10 13 14 12 12 14 15 17 20 21 22 24 25 26 27 25 25 26 26 26 27 27 27 26 25 25 27 27 27 27 26 25 23 20 19 18 17 15 13 10 8 7 6 4 3 3 3 3 2 4 7 6 10 14
2 1 2 3 3 4 6 7 5 4 2 3 5 7 6 6 5 4 5 6 6 5 3 4 7 8 7 7 7 6 7 8 10 12 13 11 11 13 15 16 19 20 22 23 24 25 26 26 26 27 27 27 27 27 26 26 25 25 26 26 26 26 26 25 24 22 20 19 17 15 13 11 9 7 5 4 4 3 3 4 4 6 9 10 13 16
4 4 4 5 4 3 3 4 3 4 4 4 4 5 5 5 5 4 5 6 5 5 4 4 5 6 6 6 6 7 7 8 9 11 11 11 11 12 13 15 17 19 21 21 22 23 25 26 26 27 27 26 27 27 27 26 26 25 25 25 25 25 25 24 23 22 22 20 19 17 14 12 11 9 5 4 5 5 4 5 6 8 11 13 16 17
3 4 5 7 6 5 6 6 5 5 5 4 4 5 4 4 4 4 5 5 5 4 3 3 4 5 5 5 6 6 7 7 8 10 11 10 9 10 12 15 16 18 19 20 21 22 23 24 26 27 26 25 26 27 27 27 26 26 26 26 26 26 25 23 22 22 22 20 19 19 16 13 12 10 7 6 6 4 4 6 8 10 14 17 19 22
3 3 4 5 5 7 8 7 6 6 5 2 3 5 6 5 4 3 5 5 5 4 4 4 4 4 5 6 6 6 6 6 8 9 10 10 9 9 11 14 16 17 18 19 20 21 22 23 25 26 25 25 26 26 26 27 27 28 27 27 27 27 26 24 23 22 21 19 19 19 18 15 15 14 12 12 12 9 8 9 10 11 15 20 23 22
3 6 5 4 5 6 3 1 2 5 6 3 3 6 6 4 4 5 4 4 5 5 4 5 4 4 4 4 4 5 6 6 6 8 9 9 9 9 11 13 14 16 17 18 19 20 21 22 23 25 25 24 25 25 25 26 27 28 27 28 28 27 27 25 23 22 21 20 19 21 20 18 18 19 18 18 18 19 19 17 15 16 17 19 22 21
5 7 5 4 6 5 4 4 4 5 6 6 5 6 4 2 3 5 5 4 4 4 4 5 6 6 5 3 2 4 6 6 5 6 8 8 9 10 10 11 12 14 15 17 18 19 20 21 22 24 25 25 25 24 24 25 26 26 27 28 27 26 25 24 22 21 21 21 20 23 22 20 19 20 19 19 21 24 25 22 18 19 18 11 7 10
Wind_Direction
282 262 272 349 359 8 5 359 336 327 318 304 291 285 298 302 307 343 349 100 351 299 302 124 229 167 129 108 97 87 77 71 67 62 54 47 44 41 37 37 37 36 36 28 22 21 17 13 9 5 3 4 8 11 6 359 332 309 330 352 335 280 255 231 219 217 217 218 222 223 222 220 218 212 204 203 204 205 207 206 208 207 206 207 207 208
250 275 10 16 6 7 352 338 318 309 295 284 282 291 301 312 329 356 77 136 355 309 151 167 210 153 135 113 98 87 73 65 58 57 51 43 41 36 31 29 27 28 32 30 25 22 22 18 11 8 6 3 3 7 7 5 356 316 310 331 336 302 267 243 222 214 215 217 219 220 222 222 219 214 213 213 211 212 213 209 208 210 209 208 208 209
252 302 54 25 6 336 295 310 300 292 280 269 281 301 314 347 339 29 142 149 307 298 225 182 199 166 143 119 102 89 78 70 59 57 52 44 40 31 27 22 16 14 14 21 24 20 19 19 16 12 7 4 358 359 4 1 360 346 319 318 320 307 278 262 247 231 225 224 225 226 226 225 220 216 216 216 217 217 217 214 211 212 212 210 211 211
302 56 64 22 332 276 281 306 300 288 269 263 303 322 334 354 333 256 141 96 341 288 269 211 196 175 161 150 116 94 91 93 81 71 64 54 47 36 28 19 12 10 4 4 13 16 14 14 17 15 6 1 355 353 359 356 352 351 340 326 317 309 287 271 269 258 247 239 235 236 236 232 227 222 219 216 218 219 218 218 216 215 214 213 213 213
337 61 58 320 264 290 299 314 321 309 286 275 318 336 336 339 324 304 318 330 180 183 237 227 202 179 189 187 147 120 114 106 92 78 71 61 56 47 36 26 15 9 1 354 359 5 8 10 11 13 6 358 353 350 349 348 344 337 335 333 325 317 297 275 268 268 260 248 242 243 240 237 231 223 220 219 217 217 216 216 217 216 215 213 214 214
44 83 52 275 268 300 303 312 343 334 306 282 21 359 336 323 311 297 290 267 226 167 176 231 236 179 192 194 165 162 148 116 90 69 65 57 52 44 36 30 18 10 1 350 349 353 -0 6 3 3 3 355 349 347 341 337 334 329 326 327 327 324 312 286 266 262 264 251 242 241 235 232 229 220 218 221 220 218 216 216 217 217 217 216 215 216
80 107 230 283 288 290 295 314 351 338 305 292 46 354 327 310 298 292 272 252 265 95 151 230 262 207 198 191 169 179 174 135 100 60 55 48 43 37 31 27 19 12 2 348 345 345 349 358 359 356 355 351 343 338 334 329 324 322 321 321 322 320 316 305 275 260 265 257 240 237 235 233 232 226 220 220 222 222 220 218 219 218 218 218 218 218
76 195 226 276 289 286 302 322 345 334 305 337 28 339 319 304 288 283 264 254 309 76 150 210 271 267 218 173 162 180 193 166 101 54 50 40 34 30 26 22 18 14 4 351 344 339 340 347 353 353 347 343 338 332 328 324 320 316 314 311 312 312 308 308 294 270 267 265 248 238 236 235 235 234 231 226 224 225 222 219 219 220 219 220 220 219
28 300 288 302 294 298 331 333 338 324 296 340 356 328 309 293 280 271 262 256 86 186 179 126 316 287 192 145 162 191 206 194 73 52 48 34 27 25 19 14 12 10 4 356 344 335 334 337 342 346 343 337 334 331 325 320 317 312 310 309 305 307 304 302 300 284 270 267 264 247 235 234 235 236 239 238 232 228 226 224 222 221 222 221 220 220
32 12 358 321 305 322 337 330 327 306 289 328 331 307 269 257 254 251 261 259 165 225 201 70 3 309 147 139 167 204 213 198 50 49 43 27 20 19 12 6 3 1 -0 355 343 332 331 332 332 334 336 336 334 329 323 318 315 311 308 306 303 303 302 299 298 292 278 267 268 259 240 233 233 233 238 244 243 235 230 229 227 226 225 222 218 218
84 103 353 333 335 336 328 314 303 291 287 299 301 278 235 234 231 238 257 242 232 226 90 83 33 319 224 123 114 146 116 45 16 14 20 8 5 10 2 357 358 354 353 351 340 333 334 330 326 328 330 331 332 328 323 318 314 312 308 302 300 299 297 295 291 291 286 267 260 260 249 235 230 230 233 238 241 240 236 231 229 228 227 224 221 217
144 175 163 74 15 339 321 303 279 253 267 278 281 268 244 229 216 232 219 220 257 326 91 104 42 285 257 81 80 115 105 61 15 359 360 353 353 358 351 350 354 350 349 347 338 335 337 330 325 327 325 325 328 326 323 321 315 310 306 302 299 297 296 293 288 284 284 273 259 258 256 244 232 227 229 233 236 238 240 235 230 229 227 226 224 218
169 158 107 116 70 350 329 313 292 245 267 287 286 273 257 235 219 239 225 236 279 58 89 88 317 272 252 80 101 130 118 65 27 2 352 349 348 348 345 346 348 347 347 342 338 339 335 329 327 325 323 323 323 321 318 317 315 309 304 301 298 297 296 294 290 282 276 273 265 258 256 253 243 231 227 230 232 231 234 236 233 230 228 228 228 223
102 135 131 219 96 5 339 329 328 314 315 319 322 308 289 277 260 259 260 277 290 82 96 121 259 271 46 89 113 128 122 80 27 357 351 346 342 344 342 341 343 345 343 339 339 337 330 327 326 323 322 321 318 316 315 312 312 308 302 299 295 294 295 293 290 285 274 266 262 259 255 253 251 243 231 225 226 227 228 233 234 234 232 230 231 228
320 149 44 356 -0 354 350 351 339 322 307 314 331 307 301 329 320 296 311 320 315 341 62 169 220 317 357 103 122 121 131 154 323 339 344 339 341 345 339 339 344 342 339 339 338 332 327 326 324 322 321 319 316 314 312 310 308 304 300 297 294 291 291 290 287 283 277 266 257 256 254 250 249 249 241 232 229 228 229 231 231 235 237 234 232 232
300 300 56 37 5 343 352 358 336 319 298 309 316 290 305 353 329 311 345 357 332 310 298 173 250 336 69 118 121 125 173 211 327 337 339 340 344 344 339 341 343 339 337 337 333 329 328 326 323 322 321 318 316 313 309 307 305 302 299 296 292 290 287 285 283 279 276 269 258 250 250 249 246 247 246 240 235 232 231 231 229 231 235 235 233 233
313 321 86 73 340 3 355 345 352 342 322 304 303 321 15 340 310 303 301 79 266 271 291 333 295 315 122 130 127 132 260 338 345 342 341 342 341 339 340 342 339 337 336 334 330 327 327 326 323 322 321 318 316 313 308 305 303 300 298 295 292 290 285 282 279 275 272 267 261 253 247 246 245 244 243 240 239 237 234 233 231 230 231 231 231 232
324 311 93 62 330 31 1 335 32 13 334 324 2 9 341 284 288 299 283 269 277 285 310 316 309 314 302 123 120 75 358 353 343 342 340 338 339 338 339 338 335 335 333 329 327 325 327 327 325 323 321 319 316 312 308 304 302 299 296 294 292 289 286 283 279 274 270 264 260 255 248 243 242 241 240 238 238 239 237 235 234 232 231 230 230 231
324 305 98 69 345 20 3 282 87 52 3 1 33 12 307 282 309 294 289 316 311 307 310 306 316 316 315 19 30 359 354 346 338 341 340 338 340 340 337 335 334 334 331 328 326 326 328 325 324 322 320 317 315 312 308 304 302 299 296 293 290 288 285 283 280 273 268 262 257 254 248 244 240 237 238 236 234 234 235 235 234 235 233 231 229 228
339 312 66 84 39 32 16 356 21 48 51 29 187 120 341 327 331 326 322 316 308 307 309 311 318 329 25 43 16 356 349 341 339 339 336 336 338 337 336 334 333 333 331 329 327 326 326 324 323 323 320 318 316 313 309 305 302 298 296 292 288 286 284 282 279 274 268 261 255 252 248 245 241 237 235 233 231 230 230 232 233 234 233 230 229 226
321 303 333 49 129 176 352 34 18 11 22 356 333 21 5 335 293 296 291 319 321 307 310 314 305 323 53 61 17 356 346 339 338 333 330 333 335 335 335 332 331 331 329 329 327 324 324 324 323 322 321 318 316 313 310 307 303 299 295 292 288 285 282 280 277 274 269 263 256 251 247 244 241 238 236 232 230 228 228 229 229 231 231 229 228 225
311 289 319 335 22 2 14 48 17 8 8 351 349 -0 358 350 307 289 264 68 338 299 310 314 299 318 61 67 13 354 342 334 332 330 331 332 333 333 332 332 331 329 328 328 325 323 322 322 322 322 321 318 315 314 311 308 304 300 296 292 287 283 280 278 276 272 269 266 259 252 248 245 241 238 235 232 229 227 227 227 227 228 227 226 224 221
327 301 311 324 357 36 71 109 70 0 345 326 332 359 355 342 323 314 322 351 306 282 286 286 288 335 76 75 354 339 332 331 332 333 332 331 332 331 330 331 331 327 327 326 323 321 321 321 323 323 321 319 316 312 309 306 303 300 297 293 288 283 278 276 274 271 268 265 261 256 250 245 241 237 234 232 229 227 226 226 227 227 225 222 219 216
204 317 318 318 46 124 143 144 157 264 296 300 316 339 315 354 359 330 328 332 308 303 308 285 286 333 90 65 337 329 329 333 335 334 333 331 331 330 329 331 330 328 328 327 323 322 322 323 324 323 322 320 316 312 308 304 301 298 296 292 288 283 279 276 273 270 266 262 260 257 252 247 242 237 234 231 229 228 226 224 225 226 224 221 216 214
187 350 334 327 349 115 175 180 192 223 278 304 340 10 54 56 15 300 272 278 293 355 3 305 294 315 35 358 333 329 331 333 334 334 334 334 332 331 330 329 329 329 330 329 326 325 326 326 325 325 323 320 317 314 310 306 303 300 296 292 288 283 279 275 271 267 263 260 258 255 251 247 242 237 233 231 230 229 227 224 224 225 224 220 215 215
297 343 355 349 344 345 341 329 322 321 311 316 52 132 144 117 189 276 290 280 295 28 345 286 292 312 331 334 329 330 333 332 334 335 335 335 332 329 328 328 331 331 330 329 327 327 328 328 326 324 322 320 318 315 311 309 306 301 296 292 288 283 279 274 269 265 261 258 255 252 250 246 242 237 233 232 231 230 227 225 223 223 222 219 214 213
295 311 356 352 334 336 335 325 322 317 306 317 113 169 189 155 188 265 290 307 336 331 298 313 329 315 317 326 328 332 333 331 334 335 334 333 330 329 330 331 331 329 328 329 327 328 329 328 325 324 322 321 319 315 313 311 307 302 296 291 286 282 278 274 269 264 260 256 253 250 247 245 243 238 234 231 231 230 228 225 223 222 220 218 214 212
288 296 358 341 326 335 330 320 322 311 286 232 147 182 191 171 180 239 273 316 346 306 303 347 339 315 315 325 328 332 332 330 334 334 332 331 331 332 334 333 330 328 329 327 326 328 328 326 325 324 323 322 320 318 316 312 307 301 294 289 285 281 276 273 269 264 259 255 252 248 245 244 244 240 235 231 229 230 229 224 221 221 218 215 213 211
292 307 356 326 320 336 330 324 329 314 296 192 155 173 178 179 185 205 242 256 260 285 297 319 319 312 314 322 327 333 332 329 330 331 330 331 332 333 334 333 331 330 329 326 327 329 327 327 327 325 325 324 322 321 318 313 308 303 297 293 287 281 275 271 266 262 258 254 251 247 243 241 242 239 235 231 228 229 229 225 221 219 216 214 211 209
286 304 0 317 311 316 341 344 335 309 310 321 154 181 181 187 197 210 246 250 226 262 278 291 299 299 302 319 330 331 329 328 327 329 331 333 335 335 334 334 332 330 329 328 328 329 328 328 328 326 327 326 324 322 318 313 310 306 302 296 290 283 276 270 263 258 255 252 250 248 242 237 237 236 232 229 227 226 228 226 222 218 214 212 210 207
275 304 340 310 308 306 89 358 321 309 319 331 180 200 181 189 218 225 248 255 238 261 271 272 280 283 301 330 333 327 329 331 330 332 333 335 338 335 334 335 334 331 330 328 327 328 328 328 328 329 328 326 323 321 318 314 312 307 302 298 294 288 280 272 262 254 252 249 247 247 241 233 232 232 228 227 226 224 225 225 220 216 213 211 209 206
269 291 284 298 308 337 64 354 321 314 309 260 231 235 205 198 230 227 220 224 224 263 284 279 283 303 328 333 329 328 332 333 334 336 336 335 337 336 334 335 333 332 331 327 326 327 327 327 328 329 327 324 322 320 318 316 313 308 304 303 301 296 287 275 261 253 248 244 242 243 238 230 227 228 225 224 224 222 222 221 215 214 215 211 206 203
266 280 295 312 312 321 17 352 323 301 279 251 235 240 214 206 230 240 243 240 216 220 286 306 313 325 329 326 328 332 334 337 339 336 334 336 338 336 335 334 334 334 331 326 325 325 325 326 327 327 326 323 320 319 317 315 312 309 308 309 306 303 297 280 261 254 246 236 235 239 235 227 224 225 222 221 222 219 220 217 210 211 215 212 203 200
257 268 297 322 308 316 348 332 305 296 300 19 54 309 240 233 236 233 247 265 256 233 278 307 315 322 326 329 333 333 334 340 336 327 332 341 340 336 334 334 335 334 330 327 325 324 323 325 326 325 324 322 319 318 318 315 313 312 313 313 312 312 311 297 267 254 246 233 230 232 228 222 221 222 220 220 218 214 215 217 210 207 211 211 204 201
256 262 286 305 297 311 326 307 300 326 10 39 79 119 283 276 269 263 267 282 298 296 295 309 319 325 330 332 333 334 339 336 321 315 346 352 344 337 334 334 335 333 331 329 325 323 323 325 325 323 321 321 321 322 321 319 318 317 316 317 318 318 319 313 281 248 240 233 229 225 220 217 218 218 216 217 215 205 205 214 213 205 203 204 204 204
257 263 281 296 294 305 312 307 310 327 3 75 142 156 175 257 274 282 285 295 314 317 314 321 327 331 332 332 335 339 340 329 312 324 4 357 347 340 337 335 335 334 332 327 323 322 323 323 323 321 320 322 324 325 325 322 321 320 316 317 322 322 322 323 304 254 232 229 226 220 216 214 213 214 213 211 209 202 199 208 213 205 197 199 204 207
250 259 278 288 272 298 306 306 305 305 298 143 153 167 201 298 316 309 303 308 313 322 330 331 331 336 335 333 340 344 336 326 320 350 3 356 348 343 339 337 337 336 331 325 323 322 323 324 324 323 323 325 326 328 329 325 323 323 318 316 324 327 325 330 331 303 250 231 226 220 216 213 207 207 210 205 203 202 197 201 209 206 198 198 202 204
237 249 277 291 249 252 299 305 306 308 312 111 94 98 126 312 329 311 306 304 220 333 340 340 334 338 338 336 344 345 337 334 337 349 353 351 347 344 342 342 341 337 330 327 326 326 327 328 327 326 328 328 328 331 333 330 326 325 321 319 326 331 331 336 342 336 308 254 234 223 217 216 209 205 207 203 199 201 199 198 203 204 201 202 201 198
217 237 260 281 273 261 287 300 304 308 323 357 23 115 145 175 185 273 293 5 73 354 343 341 336 339 342 343 343 341 341 344 342 343 347 346 344 344 344 345 343 338 333 331 331 331 330 329 328 330 332 333 334 335 336 334 331 328 326 326 331 334 335 338 340 336 328 299 260 237 220 218 216 209 211 209 203 202 202 204 208 205 202 205 203 196
207 235 248 266 276 271 273 290 298 301 324 10 63 134 136 135 169 257 303 13 21 353 344 338 337 342 345 343 342 343 349 348 336 338 342 341 342 345 344 342 342 342 339 336 334 334 334 332 332 336 339 339 340 340 340 340 337 335 334 332 333 336 335 335 337 334 327 314 286 266 225 207 234 281 281 295 268 235 236 266 271 243 219 212 206 197
233 249 260 272 279 267 248 275 289 299 40 85 120 138 134 145 201 281 334 358 350 342 345 336 333 342 345 342 342 343 348 346 334 334 341 342 343 344 344 342 342 343 344 341 337 337 336 336 338 341 342 343 345 345 345 345 343 341 340 337 337 340 336 334 338 339 340 356 48 50 63 76 62 21 17 34 257 242 248 273 289 289 282 263 236 211
258 252 247 260 272 268 271 286 290 302 78 109 124 135 148 192 298 327 343 347 329 329 338 333 331 343 343 339 342 341 340 342 337 338 344 347 346 346 345 345 344 345 347 345 343 342 340 338 341 344 344 346 348 349 348 347 346 345 344 342 341 339 337 338 343 346 355 22 53 54 63 84 94 106 115 118 150 184 276 277 263 268 288 299 292 266
274 266 255 252 261 270 276 277 288 316 113 146 144 138 176 237 316 336 327 329 329 322 328 328 334 346 342 334 339 341 339 341 341 343 347 348 348 349 348 347 347 348 349 348 347 348 345 342 343 346 346 347 350 351 351 349 347 346 346 345 344 340 338 342 347 350 359 17 36 43 49 64 76 83 84 80 73 70 59 28 341 267 263 288 301 290
240 247 273 281 240 260 276 272 312 358 109 164 181 254 234 241 297 318 309 321 329 313 317 323 335 348 345 333 333 335 339 343 344 346 349 348 350 352 349 348 349 349 349 350 351 351 350 346 346 347 348 349 351 353 354 351 348 348 349 347 344 343 344 344 346 353 3 11 23 33 38 45 52 57 65 69 68 69 67 50 24 295 269 261 253 252
221 232 304 309 252 259 285 295 321 355 117 186 228 288 291 268 281 285 282 299 315 317 315 316 330 344 343 329 328 332 339 343 344 347 350 349 349 353 350 349 350 350 350 351 352 353 352 352 351 350 351 352 353 355 357 355 351 350 350 348 346 346 347 346 347 353 2 9 18 21 22 31 41 41 43 39 39 44 21 1 342 284 272 247 225 225
202 195 286 288 285 289 279 271 278 294 282 229 250 274 284 282 278 272 269 283 303 310 293 297 323 342 342 328 325 330 337 341 342 348 352 348 348 354 353 349 350 350 350 352 354 353 353 354 356 355 353 354 355 357 358 357 355 353 350 349 349 349 349 350 351 354 357 2 11 15 15 17 15 14 32 28 5 8 2 341 317 289 275 256 240 230
197 198 233 251 272 296 267 242 265 290 292 295 284 278 276 270 263 263 268 279 293 292 278 287 315 330 330 321 323 330 334 336 340 348 353 350 350 355 355 351 350 350 351 352 353 353 353 356 -0 360 357 356 357 359 358 357 357 355 352 352 353 353 353 354 355 356 357 359 5 8 10 11 3 354 7 18 352 338 335 326 314 296 282 268 256 245
159 175 245 257 254 265 274 277 287 287 282 285 291 300 306 290 271 257 254 261 268 260 251 267 299 316 323 321 324 329 328 330 341 350 353 352 353 355 356 354 350 349 350 351 352 354 356 357 360 1 -0 357 357 358 358 358 359 358 356 357 357 357 358 360 360 -0 0 1 5 4 0 3 5 360 3 7 352 336 334 333 321 301 287 276 265 254
107 183 254 273 268 267 272 274 278 280 274 246 263 297 310 309 296 276 253 243 230 221 237 265 288 307 316 318 323 324 319 327 344 349 350 354 356 354 355 355 351 349 350 351 352 354 357 357 359 2 2 358 356 356 356 358 1 2 1 0 360 360 2 3 3 4 4 4 6 3 358 0 7 7 6 4 358 349 346 351 350 329 300 281 270 261
205 244 254 258 259 263 272 297 302 293 292 299 317 311 308 299 286 283 272 242 218 219 252 287 305 305 299 302 316 314 312 326 342 345 348 355 357 353 351 352 353 352 350 350 351 353 356 356 358 2 4 0 358 356 355 356 360 2 3 3 3 4 5 4 4 4 4 4 4 3 2 4 6 6 6 5 2 358 354 359 10 1 329 293 271 266
231 260 262 254 263 280 310 325 316 295 294 312 328 314 302 285 271 281 288 273 242 239 268 298 314 317 312 314 312 298 306 321 331 338 347 351 353 355 354 352 355 354 350 351 352 353 354 356 359 3 6 4 1 359 358 357 359 360 2 5 6 7 8 7 8 7 4 2 2 3 4 7 6 5 6 5 6 7 2 -0 8 9 357 340 306 287
Height
782 786 790 794 795 793 792 792 791 790 790 790 789 786 782 782 780 777 780 781 780 784 783 784 786 787 790 792 789 788 787 787 788 787 786 786 785 785 786 786 787 787 788 788 788 787 786 784 782 780 777 776 774 773 771 770 769 769 771 773 775 777 779 780 782 785 788 791 792 792 791 789 787 786 787 789 791 794 796 797 799 801 802 804 806 807
784 790 795 794 792 793 792 792 791 790 790 789 786 783 777 777 779 777 781 783 780 784 786 784 786 789 791 792 790 789 790 792 791 791 791 789 788 787 787 787 787 787 788 788 789 788 787 787 785 783 780 778 777 776 776 775 774 773 770 771 774 777 779 780 781 784 786 787 788 787 785 784 783 783 785 787 789 792 794 796 797 799 800 802 804 806
785 791 796 793 792 794 793 792 792 790 789 786 781 780 779 777 779 780 782 783 781 785 786 783 788 792 791 791 792 791 793 795 793 792 793 792 791 790 789 789 788 788 788 788 789 788 788 788 787 785 784 782 781 780 779 778 778 778 776 774 774 776 778 779 779 779 781 781 781 782 782 782 782 782 783 786 788 790 792 794 795 797 798 800 802 804
789 792 795 793 793 794 793 791 791 789 785 783 781 783 783 781 784 785 782 782 782 784 784 782 788 793 792 792 792 792 792 793 793 792 792 792 793 792 791 791 789 788 788 788 788 788 788 788 788 787 786 785 783 782 782 781 781 781 781 780 778 777 777 777 777 776 777 778 779 780 780 781 781 781 783 784 787 788 790 792 793 795 796 798 800 802
793 794 794 794 795 793 793 792 792 793 788 783 784 788 788 785 787 786 782 783 783 784 782 781 791 796 793 793 794 792 790 791 791 791 792 792 792 793 792 792 791 789 789 788 787 788 788 788 789 789 788 787 785 784 783 783 783 782 782 782 781 779 778 776 776 775 776 777 778 779 780 781 781 781 782 783 784 786 787 789 790 792 794 796 798 799
794 796 794 795 796 793 794 794 794 796 794 789 787 789 790 789 787 786 784 784 786 789 784 783 798 804 792 789 793 791 789 791 791 790 792 792 791 792 792 792 792 791 790 789 787 787 788 788 789 789 789 788 787 786 785 784 783 783 782 781 780 779 777 776 775 775 776 777 777 778 779 780 779 779 780 780 781 783 785 786 788 790 792 793 795 797
794 795 795 795 796 793 794 796 796 796 797 795 791 790 789 788 786 785 784 785 787 790 785 780 795 805 795 789 791 790 788 790 791 791 792 792 792 792 792 793 792 792 792 789 787 786 787 788 788 788 788 788 788 787 786 785 783 783 782 781 780 778 777 776 775 775 775 776 776 776 777 778 778 777 777 778 780 781 782 784 786 788 789 791 792 794
796 795 796 795 794 793 795 800 798 796 798 793 790 791 790 786 786 784 782 782 782 785 786 780 784 795 795 790 787 787 789 791 791 793 793 792 793 794 793 793 793 793 793 790 789 786 785 787 788 788 788 787 787 786 785 785 784 783 782 781 780 779 777 775 774 774 774 774 774 774 775 776 777 776 776 777 778 780 781 782 784 785 786 788 789 791
796 797 798 797 796 795 797 801 797 797 798 790 787 791 790 786 785 782 779 778 779 786 792 785 780 789 795 791 787 787 788 791 793 793 794 794 793 794 794 794 793 792 792 791 790 788 785 785 786 787 787 786 786 785 784 783 782 782 780 780 779 777 776 774 773 772 771 772 772 772 772 773 775 776 776 776 777 778 779 780 782 782 784 785 787 789
796 798 799 798 800 800 799 799 796 798 796 788 788 790 789 786 782 780 777 776 781 789 793 788 785 791 793 789 789 790 789 790 792 792 793 794 793 794 795 794 793 792 792 791 790 789 787 785 785 785 786 786 785 784 783 782 781 780 779 778 777 776 775 773 772 771 770 770 770 770 770 771 773 775 775 776 776 776 777 778 780 780 781 783 784 786
797 798 798 799 801 800 800 795 793 796 794 789 789 788 787 783 779 779 775 776 784 788 788 788 787 791 795 789 785 789 792 792 793 792 794 794 792 794 795 793 793 792 791 791 790 788 787 786 784 783 783 784 784 783 782 781 779 778 777 776 775 775 774 772 771 770 769 769 769 769 768 768 770 773 774 775 776 775 775 776 777 778 779 780 781 782
799 800 798 800 801 798 798 794 791 792 790 789 785 782 786 783 781 783 780 781 787 787 787 785 783 790 797 792 785 788 792 792 794 795 795 796 794 794 794 792 792 792 791 790 789 788 787 786 784 781 781 781 782 782 781 780 778 777 775 774 773 772 772 771 770 769 768 767 767 767 766 766 767 770 771 772 773 772 773 774 775 776 777 777 778 779
795 799 798 799 802 800 799 797 793 790 788 787 782 783 790 789 792 794 787 784 783 783 785 782 785 789 786 784 785 788 791 793 795 795 795 795 795 794 793 791 791 790 790 789 788 788 787 786 784 781 779 778 778 779 779 779 778 776 774 772 770 769 769 769 768 767 766 765 765 764 764 764 764 766 767 768 769 769 771 772 773 773 774 775 776 776
795 798 799 800 803 801 801 802 804 800 795 791 788 791 794 794 803 802 789 785 784 783 782 780 787 787 778 781 785 786 792 794 794 793 793 793 793 792 791 789 789 789 789 788 787 787 786 785 784 782 780 778 776 776 776 776 776 775 774 771 770 768 766 766 765 765 764 763 763 762 762 762 762 762 763 764 765 766 768 769 770 771 771 772 773 774
808 808 804 803 805 803 802 805 808 808 802 796 792 793 792 793 805 805 794 790 789 784 780 783 789 783 780 787 786 785 791 792 792 791 790 790 789 789 789 787 788 788 787 787 786 786 785 784 783 782 780 779 776 774 773 773 773 773 772 771 769 767 765 764 763 762 762 761 761 760 760 760 760 760 760 761 762 763 764 766 767 768 769 769 770 771
811 810 805 804 805 804 805 805 805 807 806 800 792 793 796 797 801 803 802 802 801 795 785 784 783 774 777 785 782 786 791 788 789 789 788 789 788 788 789 787 788 787 786 785 785 784 783 783 782 781 780 778 776 774 772 771 770 769 769 768 767 766 764 762 761 760 759 759 759 758 758 758 758 758 758 758 759 759 761 762 763 765 766 767 767 768
812 807 803 806 807 806 808 807 805 808 809 803 800 802 802 800 799 801 806 807 808 804 789 782 780 769 773 786 785 787 789 786 788 790 789 791 790 790 790 789 789 788 786 785 783 782 781 781 780 779 779 777 775 774 771 769 768 766 765 764 764 763 761 760 759 758 757 756 756 755 755 755 755 755 755 755 756 756 758 759 760 761 762 764 764 765
815 809 803 807 809 808 809 809 808 809 808 805 807 808 803 802 802 801 804 802 799 797 786 780 783 777 775 784 786 785 789 791 791 791 792 792 791 792 791 790 789 787 786 786 783 782 781 781 780 778 777 776 775 773 770 768 766 764 762 761 760 759 758 757 756 755 754 754 753 752 752 752 752 752 752 752 753 754 755 755 756 757 758 759 761 762
814 812 807 805 808 808 807 810 813 810 807 806 807 807 807 810 807 802 804 805 801 800 791 780 779 777 775 781 786 788 792 795 793 792 793 793 793 793 791 790 788 786 786 785 783 783 782 781 779 778 776 774 773 771 769 767 764 762 760 759 757 756 754 753 753 752 751 750 750 749 749 749 749 749 749 749 750 751 751 752 753 754 755 756 758 759
812 815 813 805 805 809 807 810 817 814 810 808 805 805 807 810 810 806 805 805 805 805 800 791 786 779 779 786 791 794 795 795 794 794 793 793 792 792 791 789 787 786 786 784 783 782 781 780 778 777 775 772 770 769 767 765 763 760 759 756 755 753 751 750 749 748 748 747 746 746 745 745 745 745 745 745 746 747 748 748 749 750 751 752 754 755
811 817 817 806 803 808 810 812 816 816 814 811 808 807 807 808 810 810 806 804 807 809 806 806 800 785 783 791 794 795 797 795 795 793 790 790 790 790 790 790 789 787 786 784 783 782 780 779 777 776 775 772 769 767 764 762 760 758 756 754 752 750 748 746 745 744 743 742 742 741 741 741 741 741 741 741 742 742 743 744 745 746 747 749 750 752
812 814 815 809 805 809 813 815 816 815 817 816 811 809 810 810 811 811 811 810 811 811 810 814 808 791 787 794 794 795 797 794 792 790 789 789 788 789 790 789 789 788 786 785 784 782 780 777 776 774 773 771 768 765 763 760 757 755 753 752 750 747 745 743 742 740 739 739 738 737 737 737 737 737 737 737 737 737 738 739 741 742 743 744 746 748
811 810 812 809 805 809 812 813 815 815 816 817 814 811 812 813 813 813 814 816 814 810 809 814 811 796 790 795 795 794 793 791 790 789 789 789 788 789 789 788 788 787 785 785 783 781 779 775 774 772 770 769 766 764 762 759 756 753 751 749 747 745 743 741 739 737 736 735 734 733 733 732 732 732 732 732 732 732 733 734 736 737 738 739 741 743
813 812 813 807 801 807 813 814 817 818 820 819 816 815 815 817 819 818 816 818 815 809 808 812 808 794 790 794 792 789 788 788 790 790 790 790 788 788 788 786 786 784 783 783 782 779 777 773 772 770 768 767 764 762 760 757 754 751 748 746 744 742 741 738 736 734 732 731 729 729 729 728 727 727 727 727 727 727 728 729 731 732 733 735 737 739
814 812 812 810 808 812 815 816 818 820 821 817 815 818 821 825 830 826 821 820 817 814 817 819 806 789 787 792 790 787 787 789 791 791 790 791 790 789 788 785 783 782 781 781 779 776 773 771 770 768 767 765 762 759 757 754 751 749 746 744 741 739 737 735 734 731 729 727 725 725 724 723 723 723 722 722 722 723 723 725 726 727 729 730 732 736
810 810 809 815 819 819 819 817 816 815 813 812 818 826 827 831 836 830 821 816 815 819 823 820 808 794 791 795 792 789 790 791 792 792 791 793 792 790 787 784 782 782 781 779 776 772 770 769 768 767 765 762 759 756 753 751 749 746 743 741 738 736 733 731 729 727 725 724 722 720 719 719 719 718 717 718 718 718 720 721 722 722 724 726 728 732
809 809 808 813 817 817 818 817 812 813 815 817 826 833 830 832 839 834 821 815 818 823 816 808 809 808 804 800 795 792 793 793 793 794 793 791 789 786 784 783 783 782 780 777 773 770 768 768 767 765 763 760 757 754 752 749 747 744 741 738 735 732 729 726 725 722 721 719 718 716 715 714 714 713 713 713 714 715 715 716 717 718 720 722 724 727
809 809 808 811 811 811 813 813 811 813 819 823 830 834 834 838 842 836 825 823 828 825 812 805 813 817 810 801 797 796 796 795 795 795 793 788 785 783 782 783 782 780 779 776 772 770 769 767 765 763 760 757 755 752 749 747 744 741 738 735 731 728 725 722 720 717 716 714 713 712 711 711 710 709 709 709 710 711 711 712 713 713 715 717 720 722
809 809 809 809 808 809 811 813 812 811 812 820 828 833 837 842 842 836 830 829 832 826 816 814 819 819 811 801 798 798 796 796 796 794 791 787 784 783 781 782 781 779 777 774 771 769 768 765 763 760 757 755 752 749 746 743 739 736 733 729 726 723 720 718 715 712 711 709 707 707 707 707 707 705 705 705 705 706 707 707 708 709 710 713 715 717
808 809 810 808 805 808 811 811 813 811 809 816 827 831 836 840 837 834 832 832 835 833 827 825 826 820 808 799 797 797 795 795 794 792 789 787 785 784 782 781 780 778 775 772 769 767 765 763 761 758 755 752 749 746 742 739 735 731 728 724 721 718 715 712 710 707 705 703 702 702 702 703 703 701 701 701 701 702 702 703 704 705 706 708 710 713
809 810 810 808 804 806 810 810 810 810 810 818 827 830 834 838 837 837 837 836 836 835 832 832 830 818 802 795 796 796 794 794 794 793 791 788 787 786 782 780 780 778 775 771 768 766 764 762 759 756 752 749 745 743 739 735 731 728 724 720 716 712 709 706 704 702 700 698 698 698 697 697 698 697 696 696 697 697 698 700 701 701 702 704 706 709
810 810 806 805 806 805 808 810 809 809 812 821 827 827 830 834 830 828 830 829 827 826 826 825 819 808 798 796 797 796 794 795 796 794 793 790 789 787 783 781 780 779 776 773 769 766 764 762 758 755 751 747 744 740 736 731 728 724 719 715 711 707 703 699 697 695 694 693 693 693 692 692 694 693 692 692 692 693 695 696 697 698 700 701 703 706
808 809 803 804 809 806 805 809 810 809 810 813 813 812 817 824 824 821 822 822 822 823 821 814 807 803 799 797 797 796 795 796 797 796 794 791 789 787 785 783 781 780 779 775 770 767 765 762 758 754 751 747 742 738 733 730 725 720 716 712 707 701 696 692 690 689 687 687 688 688 687 688 689 689 687 688 688 689 691 692 693 695 698 699 700 702
807 808 802 804 810 807 804 807 808 806 805 802 800 800 804 810 815 818 817 813 812 814 812 806 802 801 799 797 797 797 796 797 798 795 791 789 788 788 786 783 783 782 779 775 771 768 765 761 757 753 750 746 741 736 732 728 723 719 714 709 703 698 691 686 684 683 683 683 683 683 683 684 685 684 683 684 684 685 687 689 691 694 696 696 697 699
806 807 802 803 808 806 801 804 809 807 802 798 797 798 801 803 804 808 808 803 803 805 804 802 801 798 797 798 797 796 797 798 795 789 786 788 789 788 785 783 783 782 779 776 772 768 764 761 756 752 748 744 739 735 730 725 721 716 711 706 700 695 690 683 680 679 680 680 679 678 679 679 680 679 679 680 680 681 684 688 691 692 692 692 693 696
804 805 802 801 806 806 803 806 809 803 796 795 798 800 803 805 804 807 807 800 798 800 800 800 799 797 797 797 795 796 797 795 788 782 783 787 789 788 785 783 781 780 779 776 772 768 764 760 756 752 747 742 738 734 729 724 720 715 709 703 698 694 689 683 677 675 676 676 675 675 675 675 675 675 675 675 677 679 682 686 688 687 686 687 690 694
801 803 801 802 807 808 806 804 800 794 792 798 801 798 799 801 801 806 807 801 796 796 797 797 798 797 797 796 795 796 796 790 784 780 782 787 789 788 786 783 781 780 778 775 771 767 763 759 755 751 746 742 738 734 730 725 719 714 708 702 697 693 688 683 678 674 673 672 672 672 671 671 671 671 671 671 673 676 679 682 684 683 682 684 688 690
799 800 800 803 806 807 807 805 801 799 799 798 796 795 796 798 798 802 805 801 796 793 792 795 797 797 796 795 795 796 795 791 787 784 785 787 788 787 786 784 782 780 777 774 770 765 761 757 754 750 746 742 737 734 731 725 719 714 708 703 698 692 688 683 678 674 672 670 669 669 669 669 667 667 667 667 669 672 674 677 679 679 680 681 682 683
800 798 797 801 803 803 806 807 805 804 801 794 792 795 797 798 799 802 804 800 795 792 792 795 796 795 795 795 795 795 796 796 794 790 788 788 788 786 786 785 783 780 776 773 769 765 761 757 753 749 746 741 736 733 730 725 719 714 708 703 698 693 688 682 677 674 671 668 668 668 668 668 667 667 668 668 669 670 672 675 677 677 677 677 677 677
801 798 797 801 801 799 804 805 799 795 793 791 793 796 796 797 802 806 804 796 790 790 792 794 795 794 794 795 795 795 797 799 798 793 790 788 787 785 785 784 781 779 775 772 769 765 761 756 752 748 744 740 736 732 728 725 720 714 709 704 699 695 689 683 678 676 672 669 669 670 669 668 669 670 670 672 673 674 674 676 678 678 678 677 675 674
797 797 797 800 798 796 801 803 796 789 789 790 793 795 797 800 804 805 800 791 788 789 791 793 794 793 793 794 795 796 796 797 796 792 789 788 785 784 783 782 779 777 774 772 768 765 761 756 751 748 744 740 736 732 728 725 720 715 710 705 699 695 690 685 681 677 674 671 671 671 670 670 671 672 672 675 679 679 677 676 678 680 680 680 677 674
795 796 798 799 798 795 795 798 796 792 790 792 794 796 799 803 801 796 790 787 789 789 789 791 792 792 792 793 794 795 794 794 793 790 788 786 785 783 782 780 777 775 772 770 766 763 760 755 750 747 744 740 736 732 729 725 721 716 711 706 701 696 691 687 683 679 676 675 673 672 671 672 672 672 673 674 677 677 676 675 676 677 680 682 682 679
792 796 795 792 793 794 795 799 801 797 792 793 795 798 801 800 793 787 785 785 787 788 789 790 790 789 791 792 792 793 793 792 791 789 786 786 784 783 781 779 776 774 771 767 764 761 759 755 750 747 743 740 736 733 729 726 722 717 713 708 703 698 693 689 685 682 680 679 677 675 673 672 672 673 673 673 674 674 675 676 676 676 678 681 684 684
789 793 791 787 788 794 795 795 794 790 788 789 791 791 793 791 785 784 785 784 784 786 787 788 787 787 790 791 791 791 791 791 790 788 786 785 784 782 781 779 776 773 770 767 764 761 759 755 751 747 744 740 737 734 730 727 723 718 714 709 705 701 696 692 688 685 683 682 681 679 677 675 674 674 673 674 674 675 676 677 677 678 678 679 683 686
787 788 789 787 787 788 787 783 781 781 783 786 786 783 783 784 783 784 785 784 783 784 785 786 786 786 788 790 790 790 790 790 789 787 785 785 783 781 781 778 776 774 770 767 764 762 759 756 752 749 745 741 738 735 732 728 724 720 716 712 707 702 698 694 690 687 685 685 685 684 682 680 678 676 675 675 675 675 676 676 677 678 679 679 683 686
784 786 790 789 785 783 782 779 777 779 780 782 783 782 781 781 781 782 784 784 783 783 784 785 786 785 787 788 788 788 789 789 788 787 785 784 783 781 780 779 776 774 771 768 765 762 759 756 753 750 746 742 739 737 733 730 726 722 719 715 710 705 701 697 693 689 687 687 687 687 687 685 683 681 679 678 677 676 676 677 677 678 679 680 682 683
782 787 789 787 786 788 785 778 775 779 780 779 780 779 779 780 780 781 783 782 781 782 783 784 785 785 787 788 787 787 788 788 787 786 784 783 782 781 780 778 776 774 771 769 766 763 760 756 754 751 747 743 740 738 735 731 727 724 721 717 713 709 705 701 697 693 690 689 688 689 689 689 688 686 683 682 681 680 679 679 679 679 679 679 679 679
782 789 788 783 783 784 781 775 773 775 776 777 778 777 777 778 778 778 780 780 780 781 782 783 785 785 785 786 786 786 787 786 786 785 784 783 782 781 780 778 777 774 772 769 767 764 761 758 755 752 749 745 742 739 736 732 728 725 722 718 715 712 708 704 701 698 695 693 691 690 690 690 690 688 686 685 685 683 682 682 680 679 678 677 676 675
785 789 785 782 782 780 776 773 773 774 774 774 776 776 775 776 776 776 778 779 779 781 782 783 784 784 784 785 785 785 786 785 785 784 784 782 782 781 780 779 777 775 772 770 767 765 762 760 757 754 751 748 744 740 737 733 730 726 723 720 716 713 710 707 704 701 699 696 695 693 692 691 690 688 687 685 684 683 682 681 680 678 676 674 673 672
785 784 779 781 784 781 775 774 775 777 776 773 773 775 775 775 775 775 776 778 779 780 781 781 782 783 783 784 785 785 785 784 784 784 784 782 782 782 781 779 777 775 772 770 768 765 763 761 758 755 752 749 745 742 738 735 732 728 725 722 719 715 712 709 706 704 702 700 698 696 694 692 690 688 686 684 683 680 678 677 676 676 674 672 669 668
780 779 775 777 779 774 771 771 773 776 775 773 772 774 774 774 775 775 775 776 778 778 779 780 781 781 781 783 784 785 784 783 784 784 783 782 782 782 781 780 778 775 773 770 768 766 764 762 759 756 753 750 747 744 740 737 734 731 728 725 722 719 716 713 710 708 705 703 701 699 696 694 693 690 688 686 685 682 679 677 675 675 675 672 667 664